Date String (YYYY-MM-DD hh:mm:ss) UTC,Instrument flags,absolute air pressure of the measurement (hPa),sample flow rate (lpm),inlet stack bypass flow (lpm),air temperature of the measurement (°C),ambient temperature measured by the external sensor (°C),aerosol sample conditioner tube jacket temperature (°C),OPC LED temperature (°C),internal box temperature (°C),relative humidity of the measurement (%),span deviation,mass concentration of particles derived from Lorenz-Mie calculation of OPC scattering (μg/m³),mass concentration of particles derived from Lorenz-Mie calculation of OPC scattering (μg/m³),mass concentration of particles derived from Lorenz-Mie calculation of OPC scattering (μg/m³)
DateTimeUTC,F1_M11,P_M11,Q1_M11,Q2_M11,T1_M11,T2_M11,T3_M11,T4_M11,T5_M11,U1_M11,ZSPAN_M11,X2_M11,X0_M11,X1_M11
2024-01-03 04:00:00,SystemResetWarning,0830.2,4.99,000.00,023.0,021.6,000.0,031.5,024.3,11.0,0000.0,0005.04,0009.14,0004.61
2024-01-03 04:01:00,SystemResetWarning,0830.3,4.99,000.00,023.0,021.6,000.0,031.4,024.3,11.1,0000.0,0005.05,0009.10,0004.61
2024-01-03 04:02:00,SystemResetWarning,0830.2,5.01,000.00,023.0,021.6,000.0,031.4,024.3,11.2,0000.0,0005.02,0008.80,0004.61
2024-01-03 04:03:00,SystemResetWarning,0830.2,5.00,000.00,023.0,021.6,000.0,031.4,024.3,11.2,0000.0,0005.01,0009.20,0004.61
2024-01-03 04:04:00,SystemResetWarning,0830.2,5.00,000.00,022.9,021.6,000.0,031.4,024.3,11.3,0000.0,0005.06,0009.32,0004.64
2024-01-03 04:05:00,SystemResetWarning,0830.2,5.01,000.00,022.9,021.6,000.0,031.4,024.2,11.3,0000.0,0005.10,0009.20,0004.67
2024-01-03 04:06:00,SystemResetWarning,0830.3,5.00,000.00,022.9,021.6,000.0,031.4,024.2,11.4,0000.0,0005.09,0009.13,0004.67
2024-01-03 04:07:00,SystemResetWarning,0830.2,5.00,000.00,022.9,021.5,000.0,031.4,024.2,11.5,0000.0,0005.10,0009.19,0004.66
2024-01-03 04:08:00,SystemResetWarning,0830.2,5.00,000.00,022.9,021.5,000.0,031.4,024.2,11.4,0000.0,0005.05,0009.33,0004.63
2024-01-03 04:09:00,SystemResetWarning,0830.2,5.00,000.00,022.9,021.5,000.0,031.3,024.2,11.2,0000.0,0005.06,0009.80,0004.58
2024-01-03 04:10:00,SystemResetWarning,0830.2,5.00,000.00,022.9,021.5,000.0,031.3,024.2,11.0,0000.0,0005.04,0009.86,0004.54
2024-01-03 04:11:00,SystemResetWarning,0830.2,5.00,000.00,022.8,021.5,000.0,031.3,024.2,11.0,0000.0,0005.03,0009.98,0004.52
2024-01-03 04:12:00,SystemResetWarning,0830.2,5.01,000.00,022.8,021.5,000.0,031.3,024.2,11.1,0000.0,0005.02,0010.74,0004.50
2024-01-03 04:13:00,SystemResetWarning,0830.2,5.01,000.00,022.8,021.5,000.0,031.3,024.2,10.9,0000.0,0005.06,0010.90,0004.49
2024-01-03 04:14:00,SystemResetWarning,0830.2,5.00,000.00,022.8,021.5,000.0,031.3,024.2,10.9,0000.0,0005.08,0010.72,0004.48
2024-01-03 04:15:00,SystemResetWarning,0830.2,5.00,000.00,022.8,021.5,000.0,031.3,024.2,10.9,0000.0,0005.05,0010.34,0004.47
2024-01-03 04:16:00,SystemResetWarning,0830.2,5.00,000.00,022.8,021.5,000.0,031.2,024.2,10.9,0000.0,0005.02,0010.23,0004.46
2024-01-03 04:17:00,SystemResetWarning,0830.2,5.00,000.00,022.8,021.5,000.0,031.2,024.1,11.0,0000.0,0005.04,0010.30,0004.46
2024-01-03 04:18:00,SystemResetWarning,0830.2,5.01,000.00,022.8,021.5,000.0,031.2,024.1,11.0,0000.0,0005.05,0010.24,0004.48
2024-01-03 04:19:00,SystemResetWarning,0830.2,5.00,000.00,022.8,021.5,000.0,031.2,024.1,11.0,0000.0,0005.08,0010.09,0004.52
2024-01-03 04:20:00,SystemResetWarning,0830.2,5.00,000.00,022.8,021.4,000.0,031.2,024.0,11.1,0000.0,0005.12,0010.95,0004.58
2024-01-03 04:21:00,SystemResetWarning,0830.2,5.00,000.00,022.7,021.4,000.0,031.2,024.0,11.0,0000.0,0005.08,0011.24,0004.60
2024-01-03 04:22:00,SystemResetWarning,0830.2,4.99,000.00,022.7,021.4,000.0,031.2,024.0,11.1,0000.0,0005.06,0011.52,0004.58
2024-01-03 04:23:00,SystemResetWarning,0830.2,5.00,000.00,022.7,021.4,000.0,031.2,024.0,11.2,0000.0,0005.06,0011.40,0004.57
2024-01-03 04:24:00,SystemResetWarning,0830.3,5.00,000.00,022.7,021.4,000.0,031.1,024.0,11.3,0000.0,0005.05,0011.62,0004.56
2024-01-03 04:25:00,SystemResetWarning,0830.3,4.99,000.00,022.7,021.4,000.0,031.1,024.0,11.3,0002.2,0005.03,0012.35,0004.54
2024-01-03 04:26:00,SystemResetWarning,0830.3,5.00,000.00,022.7,021.4,000.0,031.1,024.0,11.3,0004.0,0005.00,0012.88,0004.48
2024-01-03 04:27:00,SystemResetWarning,0830.2,5.00,000.00,022.6,021.3,000.0,031.1,024.0,11.2,0004.0,0004.96,0012.99,0004.41
2024-01-03 04:28:00,SystemResetWarning,0830.2,5.00,000.00,022.6,021.3,000.0,031.1,024.0,11.2,0004.1,0004.88,0013.68,0004.34
2024-01-03 04:29:00,SystemResetWarning,0830.1,5.00,000.00,022.6,021.3,000.0,031.1,024.0,11.1,0004.1,0004.80,0013.85,0004.25
2024-01-03 04:30:00,SystemResetWarning,0830.1,5.00,000.00,022.6,021.3,000.0,031.1,024.0,11.1,0000.3,0004.72,0013.85,0004.15
2024-01-03 04:31:00,SystemResetWarning,0830.2,5.00,000.00,022.6,021.3,000.0,031.0,023.9,11.0,0000.0,0004.62,0012.27,0004.05
2024-01-03 04:32:00,SystemResetWarning,0830.1,5.00,000.00,022.6,021.3,000.0,031.0,023.9,11.0,0002.9,0004.57,0011.75,0003.98
2024-01-03 04:33:00,SystemResetWarning,0830.1,5.00,000.00,022.6,021.2,000.0,031.0,023.9,10.9,0003.4,0004.53,0011.57,0003.95
2024-01-03 04:34:00,SystemResetWarning,0830.1,4.99,000.00,022.6,021.2,000.0,031.0,023.9,10.9,0000.5,0004.50,0011.03,0003.93
2024-01-03 04:35:00,SystemResetWarning,0830.1,5.00,000.00,022.6,021.2,000.0,031.0,023.8,10.9,0004.1,0004.46,0010.65,0003.91
2024-01-03 04:36:00,SystemResetWarning,0830.1,5.00,000.00,022.5,021.2,000.0,031.0,023.8,10.9,0002.1,0004.45,0009.95,0003.92
2024-01-03 04:37:00,SystemResetWarning,0830.1,5.00,000.00,022.5,021.2,000.0,031.0,023.8,10.9,0000.0,0004.43,0009.36,0003.94
2024-01-03 04:38:00,SystemResetWarning,0830.1,5.00,000.00,022.5,021.2,000.0,031.0,023.8,10.8,0000.0,0004.42,0009.21,0003.97
2024-01-03 04:39:00,SystemResetWarning,0830.1,5.00,000.00,022.5,021.1,000.0,030.9,023.8,10.9,0000.0,0004.42,0008.38,0003.99
2024-01-03 04:40:00,SystemResetWarning,0830.1,5.00,000.00,022.5,021.1,000.0,030.9,023.8,10.8,0000.0,0004.47,0008.09,0004.00
2024-01-03 04:41:00,SystemResetWarning,0830.1,5.00,000.00,022.5,021.1,000.0,030.9,023.8,10.8,0000.0,0004.46,0007.99,0004.01
2024-01-03 04:42:00,SystemResetWarning,0830.1,5.01,000.00,022.4,021.1,000.0,030.9,023.8,10.8,0000.0,0004.44,0008.25,0004.01
2024-01-03 04:43:00,SystemResetWarning,0830.0,5.00,000.00,022.4,021.1,000.0,030.9,023.8,10.8,0000.0,0004.44,0008.92,0004.01
2024-01-03 04:44:00,SystemResetWarning,0830.1,5.00,000.00,022.4,021.1,000.0,030.9,023.7,10.8,0000.0,0004.43,0009.10,0004.01
2024-01-03 04:45:00,SystemResetWarning,0830.1,5.00,000.00,022.4,021.1,000.0,030.9,023.7,10.8,0000.0,0004.43,0009.78,0004.00
2024-01-03 04:46:00,SystemResetWarning,0830.0,5.00,000.00,022.4,021.1,000.0,030.9,023.7,10.8,0000.0,0004.43,0010.14,0003.98
2024-01-03 04:47:00,SystemResetWarning,0830.1,5.00,000.00,022.4,021.1,000.0,030.8,023.7,10.7,0000.0,0004.35,0009.92,0003.93
2024-01-03 04:48:00,SystemResetWarning,0830.1,5.01,000.00,022.4,021.1,000.0,030.8,023.7,10.7,0000.0,0004.33,0009.85,0003.90
2024-01-03 04:49:00,SystemResetWarning,0830.1,5.00,000.00,022.4,021.1,000.0,030.8,023.7,10.8,0000.0,0004.31,0010.13,0003.84
2024-01-03 04:50:00,SystemResetWarning,0830.0,5.00,000.00,022.3,021.0,000.0,030.8,023.7,10.8,0000.0,0004.29,0010.94,0003.80
2024-01-03 04:51:00,SystemResetWarning,0830.0,5.00,000.00,022.3,021.0,000.0,030.8,023.7,11.0,0000.0,0004.21,0010.81,0003.76
2024-01-03 04:52:00,SystemResetWarning,0830.0,5.00,000.00,022.3,021.0,000.0,030.8,023.7,11.1,0000.0,0004.16,0010.79,0003.72
2024-01-03 04:53:00,SystemResetWarning,0830.1,5.00,000.00,022.3,021.0,000.0,030.8,023.7,11.0,0000.0,0004.10,0010.50,0003.68
2024-01-03 04:54:00,SystemResetWarning,0830.1,5.00,000.00,022.3,021.0,000.0,030.7,023.7,11.0,0000.0,0004.03,0009.65,0003.64
2024-01-03 04:55:00,SystemResetWarning,0830.1,5.00,000.00,022.3,021.0,000.0,030.7,023.6,11.0,0000.0,0003.99,0009.32,0003.60
2024-01-03 04:56:00,SystemResetWarning,0830.1,5.00,000.00,022.3,021.0,000.0,030.7,023.6,11.0,0000.0,0003.97,0008.71,0003.57
2024-01-03 04:57:00,SystemResetWarning,0830.1,5.00,000.00,022.3,021.0,000.0,030.7,023.6,11.1,0000.0,0003.95,0008.00,0003.56
2024-01-03 04:58:00,SystemResetWarning,0830.1,5.00,000.00,022.3,021.0,000.0,030.7,023.6,11.2,0000.0,0003.93,0007.99,0003.54
2024-01-03 04:59:00,SystemResetWarning,0830.1,5.00,000.00,022.2,021.0,000.0,030.7,023.6,11.3,0000.0,0003.91,0008.02,0003.51
